Location: Newark
(44.6768°N, 22.5302°E)
Time: 16:41:42
(UTC+00:00)

CAS-6 - Pass Details

Date: 06 July 2022
Orbit: 613 x 634 km, 97.9° (Epoch: 19 August)

Event Time Altitude Azimuth Distance (km) Brightness Sun altitude
Exits shadow 21:35:01 23° 237° (WSW) 1,316 ? -21.3°
Maximum altitude 21:36:15 27° 265° (W) 1,203 ? -21.4°
Drops below altitude 10° 21:39:58 10° 324° (NW) 1,997 ? -21.6°
Sets 21:42:26 0° 336° (NNW) 2,905 ? -21.7°
